Hourly Weather Roundup
Issued by NWS Central Illinois

Home | Current Version | Previous Version | Text Only | Print | Product List | Glossary On
Versions: 1 2 3 4 5 6 7 8 9 10 11 12 13 14 15 16 17 18 19 20 21 22 23 24 25 26 27 28 29 30 31 32 33 34 35 36 37 38 39 40 41 42 43 44 45 46 47 48 49 50
000
NZUS43 KILX 282010
HWRILX

AREA WEATHER ROUNDUP
NATIONAL WEATHER SERVICE, LINCOLN IL
300 PM CDT SAT MAY 28 2016


CITY           SKY/WX    TMP DP  RH WIND       PRES   REMARKS
BLOOMINGTON    MOSUNNY   83  68  60 S22G28    29.92F HX  86
CHAMPAIGN      MOSUNNY   79  67  66 S20G31    29.96S HX  81
DANVILLE       RAIN      80  67  64 S15G21    29.95S HX  82
DECATUR        MOSUNNY   82  67  60 S15G25    29.94S HX  84
EFFINGHAM      CLOUDY    81  69  67 S14G20    29.99F HX  84
FLORA          CLOUDY    83  69  63 S15       29.99S HX  86
GALESBURG      MOSUNNY   81  66  61 S18G24    29.85S HX  83
JACKSONVILLE   MOSUNNY   83  66  56 S16G23    29.89F HX  84
LACON          SUNNY     83  63  51 SW13G20   29.87S HX  84
LAWRENCEVILLE  CLOUDY    84  63  49 S23       30.00S HX  85
LITCHFIELD     SUNNY     81  66  61 S21       29.93F HX  83
$$


CITY           SKY/WX    TMP DP  RH WIND       PRES   REMARKS
LINCOLN        MOSUNNY   85  66  54 S15G25    29.90F HX  87
MACOMB         MOSUNNY   81  65  59 S17G26    29.88S HX  82
MATTOON        PTSUNNY   77  63  61 S14G21    29.97F
MT CARMEL AP   CLOUDY    82  64  54 S20G25    30.00R HX  83
OLNEY-NOBLE AP PTSUNNY   79  68  69 S10       29.99F HX  81
PARIS          CLOUDY    79  69  71 S9        30.00S HX  81
PEORIA         MOSUNNY   84  62  47 S17G28    29.87F HX  85
PONTIAC        MOSUNNY   85  66  52 S22       29.91F HX  87
RANTOUL        MOSUNNY   81  68  66 S20       29.96S HX  83
ROBINSON       CLOUDY    82  67  59 SW15      30.01S HX  85
SPRINGFIELD    MOSUNNY   85  66  53 S21G28    29.90F HX  87
TAYLORVILLE    SUNNY     82  68  61 S16G23    29.93F HX  85
$$

...REGIONAL REPORTS...


CITY           SKY/WX    TMP DP  RH WIND       PRES   REMARKS
CHICAGO O`HARE PTSUNNY   78  65  63 S20G25    29.90F HX  80
KANKAKEE       CLOUDY    81  67  62 S18G28    29.95S HX  83
MOLINE         SUNNY     84  65  52 S18G29    29.80F HX  86
MOUNT STERLING PTSUNNY   80  67  63 S14G23    29.87S HX  82
MOUNT VERNON   CLOUDY    82  68  61 S13       29.99S HX  85
PITTSFIELD     MOSUNNY   82  69  66 S14G21    29.90R HX  85
QUINCY         CLOUDY    81  65  58 S20G26    29.86S HX  83
ROCKFORD       PTSUNNY   81  62  52 S15G26    29.87F HX  82
$$


CITY           SKY/WX    TMP DP  RH WIND       PRES   REMARKS
BURLINGTON     PTSUNNY   76  67  73 S17G25    29.82F
CEDAR RAPIDS   LGT RAIN  73  70  90 S13       29.78S
DES MOINES     PTSUNNY   70  62  76 SW10      29.79S
KIRKSVILLE     LGT RAIN  75  62  64 SW15      29.87S
OTTUMWA        MOSUNNY   76  62  62 SW16G29   29.81S
ST LOUIS       CLOUDY    84  65  52 S17       29.93R HX  86
$$


CITY           SKY/WX    TMP DP  RH WIND       PRES   REMARKS
TERRE HAUTE    CLOUDY    81  58  45 S14G22    29.99S HX  81
EVANSVILLE     CLOUDY    81  64  56 SW17G26   30.02S HX  82
INDIANAPOLIS   CLOUDY    81  65  58 S18G26    30.00S HX  83
LAFAYETTE      MOSUNNY   83  61  47 SW15G22   29.97F HX  83
MADISON        PTSUNNY   81  61  50 S20G28    29.81F HX  82
MILWAUKEE      PTSUNNY   80  65  59 S14G26    29.87F HX  82
$$






USA.gov is the U.S. government's official web portal to all federal, state and local government web resources and services.